Home > Weather > Winnipeg > Past weeks

Flag for Canada Weather for the Past 2 Weeks in Winnipeg, Manitoba, Canada

Now
-10 °F

Extremely cold.


Feels Like: -10 °F
Forecast: -19 / 5 °F
Wind: 1 mph from Southeast

Location: Winnipeg The Forks Man

Current Time: Feb 13, 2016 at 1:48:45 AM

Latest Report: Feb 13, 2016 at 1:00 AM


Visibility: N/A

Pressure: 30.72 "Hg

Humidity: 74%

Dew point: -16 °F

Location of WinnipegLocation

Historic Weather in Winnipeg — Graph

°F

Winnipeg Temperature Yesterday

Maximum temperature yesterday: 0 °F (at 12:00 AM)
Minimum temperature yesterday: -13 °F (at 8:00 AM)
Average temperature yesterday: -7 °F

High & Low Weather Summary for the Past Weeks

 TemperatureHumidityPressure
High38 °F (Jan 29, 9:00 PM)99% (Feb 7, 7:00 AM)30.77 "Hg (Feb 7, 7:00 AM)
Low-13 °F (Feb 12, 8:00 AM)53% (Feb 11, 10:00 PM)29.19 "Hg (Jan 30, 1:00 AM)
Average14 °F76%30.04 "Hg
* Reported Midnight between Jan 28 and Jan 29 — Midnight between Feb 12 and Feb 13, Winnipeg, Weather by CustomWeather, © 2016

Note: Actual official high and low records may vary slightly from our data, if they occured in-between our weather recording intervals... More about our weather records

Advertising

Winnipeg Weather History for the Previous 24 Hours

 ConditionsComfort  
Time TempWeatherWind HumidityBarometerVisibility
12:00 AM
Sat, Feb 13
-9 °FFrigid.No wind67%30.72 "HgN/A
11:00 PM
Fri, Feb 12
-7 °FFrigid.2 mph62%30.73 "HgN/A
10:00 PM-8 °FFrigid.3 mph63%30.73 "HgN/A
9:00 PM-7 °FFrigid.2 mph62%30.73 "HgN/A
8:00 PM-7 °FFrigid.3 mph60%30.75 "HgN/A
7:00 PM-7 °FFrigid.3 mph60%30.76 "HgN/A
6:00 PM-7 °FFrigid.3 mph60%30.77 "HgN/A
5:00 PM-6 °FFrigid.3 mph58%30.76 "HgN/A
4:00 PM-6 °FFrigid.6 mph58%30.76 "HgN/A
3:00 PM-5 °FFrigid.3 mph58%30.75 "HgN/A
2:00 PM-6 °FFrigid.5 mph55%30.75 "HgN/A
1:00 PM-8 °FFrigid.7 mph59%30.75 "HgN/A
12:00 PM-9 °FFrigid.8 mph62%30.75 "HgN/A
11:00 AM-11 °FExtremely cold.5 mph63%30.73 "HgN/A
10:00 AM-13 °FExtremely cold.8 mph64%30.73 "HgN/A
9:00 AM-13 °FExtremely cold.8 mph66%30.71 "HgN/A
8:00 AM-13 °FExtremely cold.7 mph66%30.69 "HgN/A
7:00 AM-12 °FExtremely cold.7 mph66%30.66 "HgN/A
6:00 AM-11 °FExtremely cold.6 mph72%30.63 "HgN/A
5:00 AM-9 °FFrigid.7 mph64%30.59 "HgN/A
4:00 AM-7 °FFrigid.10 mph62%30.54 "HgN/A
3:00 AM-5 °FFrigid.12 mph65%30.50 "HgN/A
2:00 AM-3 °FFrigid.10 mph65%30.46 "HgN/A
1:00 AM-1 °FFrigid.8 mph65%30.43 "HgN/A
Weather by CustomWeather, © 2016

See weather overviewHow to use our weather pages